| time (UTC) | temp C | wind direction | speed KPH | gust KPH | rain 1hr cm | rain 24hr cm | rain mn cm | humidity % | barometer mb |
| 20260510175632 | 15 | 53 | 9.7 | 25.7 | 0.00 | 0.81 | 0.00 | 35 | 1017.7 |
| 20260510174630 | 15 | 29 | 6.4 | 25.7 | 0.00 | 0.81 | 0.00 | 34 | 1017.7 |
| 20260510173630 | 15 | 33 | 14.5 | 22.5 | 0.00 | 0.81 | 0.00 | 38 | 1017.7 |
| 20260510172629 | 15 | 39 | 11.3 | 20.9 | 0.00 | 0.81 | 0.00 | 36 | 1017.7 |
| 20260510171628 | 15 | 2 | 6.4 | 24.1 | 0.00 | 0.81 | 0.00 | 36 | 1017.7 |
| 20260510170627 | 15 | 11 | 16.1 | 22.5 | 0.00 | 0.81 | 0.00 | 41 | 1017.7 |
| 20260510165626 | 15 | 37 | 9.7 | 22.5 | 0.00 | 0.81 | 0.00 | 42 | 1017.7 |
| 20260510164625 | 14 | 40 | 8.0 | 22.5 | 0.00 | 0.81 | 0.00 | 41 | 1018.0 |
| 20260510163624 | 14 | 64 | 8.0 | 33.8 | 0.00 | 0.81 | 0.00 | 38 | 1017.7 |
| 20260510162624 | 14 | 24 | 11.3 | 33.8 | 0.00 | 0.81 | 0.00 | 39 | 1017.7 |
| 20260510161623 | 13 | 14 | 11.3 | 19.3 | 0.00 | 0.81 | 0.00 | 42 | 1017.7 |
| 20260510160623 | 13 | 23 | 11.3 | 19.3 | 0.00 | 0.81 | 0.00 | 37 | 1017.7 |
| 20260510155622 | 13 | 58 | 6.4 | 17.7 | 0.00 | 0.81 | 0.00 | 42 | 1017.3 |
| 20260510154621 | 13 | 52 | 9.7 | 17.7 | 0.00 | 0.81 | 0.00 | 43 | 1017.3 |
| 20260510153620 | 13 | 35 | 4.8 | 17.7 | 0.00 | 0.81 | 0.00 | 48 | 1017.0 |
| 20260510152547 | 13 | 59 | 8.0 | 17.7 | 0.00 | 0.81 | 0.00 | 46 | 1017.0 |
| 20260510151546 | 13 | 68 | 9.7 | 16.1 | 0.00 | 0.81 | 0.00 | 50 | 1017.0 |
| 20260510150545 | 13 | 40 | 3.2 | 20.9 | 0.00 | 0.81 | 0.00 | 51 | 1017.0 |
| 20260510145544 | 13 | 28 | 6.4 | 20.9 | 0.00 | 0.81 | 0.00 | 46 | 1016.7 |
| 20260510144441 | 12 | 49 | 3.2 | 19.3 | 0.00 | 0.81 | 0.00 | 50 | 1016.7 |
| 20260510143441 | 12 | 81 | 3.2 | 14.5 | 0.00 | 0.81 | 0.00 | 51 | 1016.6 |
| 20260510142439 | 12 | 84 | 6.4 | 16.1 | 0.00 | 0.81 | 0.00 | 51 | 1016.6 |
| 20260510141438 | 12 | 79 | 6.4 | 20.9 | 0.00 | 0.81 | 0.00 | 52 | 1016.6 |
| 20260510140437 | 11 | 62 | 11.3 | 20.9 | 0.00 | 0.81 | 0.00 | 52 | 1016.2 |
| 20260510135436 | 11 | 39 | 11.3 | 19.3 | 0.00 | 0.81 | 0.00 | 49 | 1016.6 |
| 20260510134405 | 11 | 52 | 8.0 | 20.9 | 0.00 | 0.81 | 0.00 | 54 | 1016.6 |
| 20260510133404 | 11 | 63 | 12.9 | 22.5 | 0.00 | 0.81 | 0.00 | 53 | 1016.2 |
| 20260510132403 | 11 | 63 | 11.3 | 22.5 | 0.00 | 0.81 | 0.00 | 54 | 1016.2 |
| 20260510131331 | 11 | 63 | 8.0 | 16.1 | 0.00 | 0.81 | 0.00 | 55 | 1015.9 |
| 20260510130331 | 11 | 96 | 4.8 | 16.1 | 0.00 | 0.81 | 0.00 | 55 | 1015.8 |
| 20260510125330 | 10 | 60 | 6.4 | 14.5 | 0.00 | 0.81 | 0.00 | 56 | 1015.5 |
| 20260510124329 | 10 | 60 | 4.8 | 14.5 | 0.00 | 0.81 | 0.00 | 62 | 1015.5 |
| 20260510123257 | 9 | 69 | 6.4 | 19.3 | 0.00 | 0.81 | 0.00 | 64 | 1015.1 |
| 20260510122257 | 8 | 57 | 11.3 | 19.3 | 0.00 | 0.81 | 0.00 | 63 | 1015.1 |
| 20260510121256 | 8 | 51 | 9.7 | 19.3 | 0.00 | 0.81 | 0.00 | 66 | 1015.1 |
| 20260510120255 | 8 | 65 | 11.3 | 17.7 | 0.00 | 0.81 | 0.00 | 71 | 1014.8 |
| 20260510115254 | 8 | 61 | 6.4 | 16.1 | 0.00 | 0.81 | 0.00 | 74 | 1014.4 |
| 20260510114222 | 8 | 68 | 4.8 | 16.1 | 0.00 | 0.81 | 0.00 | 74 | 1014.4 |
| 20260510113221 | 8 | 50 | 11.3 | 16.1 | 0.00 | 0.81 | 0.00 | 74 | 1014.1 |
| 20260510112221 | 8 | 58 | 4.8 | 14.5 | 0.00 | 0.81 | 0.00 | 76 | 1013.7 |
| 20260510111220 | 8 | 63 | 6.4 | 14.5 | 0.00 | 0.81 | 0.00 | 76 | 1013.4 |
| 20260510110228 | 8 | 53 | 9.7 | 14.5 | 0.00 | 0.81 | 0.00 | 76 | 1013.4 |
| 20260510104845 | 8 | 64 | 4.8 | 12.9 | 0.00 | 0.81 | 0.00 | 77 | 1013.1 |
| 20260510103845 | 8 | 66 | 4.8 | 11.3 | 0.00 | 0.81 | 0.00 | 79 | 1012.9 |
| 20260510102844 | 8 | 57 | 4.8 | 17.7 | 0.00 | 0.81 | 0.00 | 79 | 1012.8 |
| 20260510101843 | 8 | 67 | 8.0 | 16.1 | 0.00 | 0.81 | 0.00 | 78 | 1012.4 |
| 20260510100841 | 8 | 62 | 4.8 | 8.0 | 0.00 | 0.81 | 0.00 | 79 | 1012.4 |
| 20260510095840 | 8 | 61 | 4.8 | 9.7 | 0.00 | 0.81 | 0.00 | 80 | 1012.5 |
| 20260510094839 | 8 | 59 | 3.2 | 9.7 | 0.00 | 0.81 | 0.00 | 81 | 1012.1 |
| 20260510093838 | 8 | 27 | 1.6 | 3.2 | 0.00 | 0.81 | 0.00 | 85 | 1012.1 |
| 20260510092837 | 7 | 17 | 1.6 | 3.2 | 0.00 | 0.81 | 0.00 | 86 | 1012.1 |
| 20260510091836 | 7 | 17 | 1.6 | 3.2 | 0.00 | 0.81 | 0.00 | 89 | 1012.1 |
| 20260510090836 | 7 | 17 | 0.0 | 3.2 | 0.00 | 0.81 | 0.00 | 88 | 1011.7 |
| 20260510085835 | 7 | 17 | 1.6 | 3.2 | 0.00 | 0.81 | 0.00 | 89 | 1011.4 |
| 20260510084833 | 7 | 17 | 0.0 | 3.2 | 0.00 | 0.81 | 0.00 | 89 | 1011.4 |
| 20260510083833 | 7 | 17 | 3.2 | 3.2 | 0.00 | 0.81 | 0.00 | 87 | 1011.1 |
| 20260510082831 | 7 | 17 | 0.0 | 0.0 | 0.00 | 0.81 | 0.00 | 85 | 1011.1 |
| 20260510081830 | 8 | 17 | 0.0 | 3.2 | 0.00 | 0.81 | 0.00 | 80 | 1011.1 |
| 20260510080829 | 8 | 17 | 0.0 | 3.2 | 0.00 | 0.81 | 0.00 | 80 | 1011.1 |
| 20260510075829 | 8 | 16 | 1.6 | 3.2 | 0.00 | 0.81 | 0.00 | 80 | 1011.1 |
| 20260510074757 | 8 | 16 | 0.0 | 3.2 | 0.00 | 0.81 | 0.00 | 80 | 1010.8 |
| 20260510073756 | 8 | 49 | 1.6 | 3.2 | 0.00 | 0.81 | 0.00 | 76 | 1010.8 |
| 20260510072724 | 8 | 106 | 1.6 | 3.2 | 0.00 | 0.81 | 0.00 | 74 | 1010.1 |
| 20260510071723 | 9 | 145 | 1.6 | 4.8 | 0.00 | 0.81 | 0.00 | 72 | 1010.1 |
| 20260510070723 | 9 | 78 | 1.6 | 8.0 | 0.00 | 0.81 | 0.00 | 72 | 1009.8 |
| 20260510065722 | 9 | 72 | 1.6 | 8.0 | 0.00 | 0.81 | 0.00 | 72 | 1009.8 |
| 20260510064650 | 10 | 57 | 3.2 | 9.7 | 0.00 | 0.81 | 0.00 | 71 | 1009.8 |
| 20260510063649 | 10 | 80 | 3.2 | 17.7 | 0.00 | 0.81 | 0.00 | 71 | 1009.8 |
| 20260510062648 | 10 | 88 | 8.0 | 17.7 | 0.00 | 0.81 | 0.00 | 70 | 1009.8 |
| 20260510061647 | 10 | 62 | 4.8 | 20.9 | 0.00 | 0.81 | 0.00 | 70 | 1009.8 |
| 20260510060646 | 11 | 76 | 9.7 | 27.4 | 0.00 | 0.81 | 0.00 | 72 | 1009.5 |
| 20260510055645 | 11 | 67 | 11.3 | 27.4 | 0.00 | 0.81 | 0.00 | 74 | 1009.2 |
| 20260510054645 | 12 | 47 | 16.1 | 24.1 | 0.00 | 0.81 | 0.00 | 83 | 1009.2 |
| 20260510053644 | 12 | 1 | 17.7 | 22.5 | 0.00 | 0.81 | 0.00 | 88 | 1008.9 |
| 20260510052643 | 12 | 339 | 3.2 | 6.4 | 0.00 | 0.81 | 0.00 | 89 | 1008.5 |
| 20260510051642 | 12 | 326 | 3.2 | 14.5 | 0.00 | 0.81 | 0.00 | 88 | 1008.2 |
| 20260510050610 | 12 | 338 | 3.2 | 14.5 | 0.00 | 0.81 | 0.00 | 88 | 1008.2 |
| 20260510045609 | 12 | 345 | 6.4 | 16.1 | 0.00 | 0.81 | 0.00 | 89 | 1007.8 |
| 20260510044609 | 12 | 347 | 4.8 | 19.3 | 0.00 | 0.81 | 0.00 | 88 | 1007.9 |
| 20260510043536 | 12 | 27 | 11.3 | 19.3 | 0.00 | 0.81 | 0.00 | 89 | 1007.8 |
| 20260510042536 | 12 | 253 | 3.2 | 6.4 | 0.00 | 0.81 | 0.00 | 88 | 1006.8 |
| 20260510041535 | 12 | 270 | 3.2 | 4.8 | 0.00 | 0.81 | 0.00 | 87 | 1006.8 |
| 20260510040501 | 12 | 264 | 1.6 | 8.0 | 0.00 | 0.81 | 0.00 | 86 | 1006.8 |
| 20260510035501 | 12 | 258 | 1.6 | 11.3 | 0.03 | 0.81 | 0.81 | 86 | 1006.8 |
| 20260510034500 | 12 | 258 | 6.4 | 11.3 | 0.03 | 0.81 | 0.81 | 86 | 1006.8 |
| 20260510033459 | 12 | 272 | 3.2 | 6.4 | 0.08 | 0.81 | 0.81 | 87 | 1006.8 |
| 20260510032458 | 12 | 259 | 1.6 | 3.2 | 0.08 | 0.81 | 0.81 | 87 | 1006.8 |
| 20260510031425 | 13 | 256 | 1.6 | 4.8 | 0.08 | 0.81 | 0.81 | 88 | 1006.8 |
| 20260510030424 | 13 | 259 | 1.6 | 8.0 | 0.08 | 0.81 | 0.81 | 87 | 1006.8 |
| 20260510025424 | 13 | 300 | 1.6 | 12.9 | 0.05 | 0.79 | 0.79 | 87 | 1006.4 |
| 20260510024423 | 13 | 268 | 3.2 | 14.5 | 0.13 | 0.79 | 0.79 | 86 | 1006.8 |
| 20260510023422 | 13 | 294 | 8.0 | 14.5 | 0.25 | 0.74 | 0.74 | 86 | 1007.1 |
| 20260510022421 | 13 | 265 | 8.0 | 14.5 | 0.25 | 0.74 | 0.74 | 86 | 1006.7 |
| 20260510021420 | 13 | 278 | 9.7 | 14.5 | 0.25 | 0.74 | 0.74 | 86 | 1006.7 |
| 20260510020419 | 13 | 290 | 8.0 | 30.6 | 0.25 | 0.74 | 0.74 | 85 | 1006.4 |
| 20260510015419 | 13 | 305 | 11.3 | 40.2 | 0.25 | 0.74 | 0.74 | 84 | 1006.7 |
| 20260510014418 | 13 | 309 | 20.9 | 40.2 | 0.18 | 0.66 | 0.66 | 79 | 1007.0 |
| 20260510013417 | 13 | 269 | 3.2 | 6.4 | 0.00 | 0.48 | 0.48 | 85 | 1006.0 |
| 20260510012314 | 13 | 272 | 3.2 | 6.4 | 0.00 | 0.48 | 0.48 | 85 | 1005.6 |
| 20260510011313 | 13 | 271 | 1.6 | 6.4 | 0.00 | 0.48 | 0.48 | 86 | 1005.6 |
| 20260510010312 | 13 | 282 | 3.2 | 8.0 | 0.00 | 0.48 | 0.48 | 85 | 1005.6 |
| 20260510005311 | 13 | 298 | 3.2 | 8.0 | 0.00 | 0.48 | 0.48 | 83 | 1005.6 |
| 20260510004311 | 13 | 294 | 3.2 | 16.1 | 0.00 | 0.48 | 0.48 | 83 | 1005.3 |
| 20260510003239 | 13 | 296 | 4.8 | 19.3 | 0.03 | 0.51 | 0.48 | 82 | 1005.3 |
| 20260510002238 | 13 | 295 | 9.7 | 19.3 | 0.03 | 0.51 | 0.48 | 82 | 1005.3 |
| 20260510001206 | 13 | 297 | 8.0 | 19.3 | 0.08 | 0.53 | 0.48 | 83 | 1005.6 |
| 20260510000032 | 13 | 308 | 8.0 | 19.3 | 0.13 | 0.53 | 0.48 | 83 | 1005.6 |
| 20260509235031 | 13 | 319 | 12.9 | 27.4 | 0.18 | 0.56 | 0.48 | 83 | 1005.6 |
| 20260509233959 | 13 | 311 | 19.3 | 29.0 | 0.38 | 0.56 | 0.48 | 83 | 1005.6 |
| 20260509232958 | 13 | 300 | 16.1 | 29.0 | 0.46 | 0.56 | 0.46 | 83 | 1005.2 |
| 20260509231957 | 13 | 316 | 16.1 | 29.0 | 0.43 | 0.56 | 0.46 | 84 | 1005.5 |
| 20260509230956 | 13 | 316 | 19.3 | 35.4 | 0.41 | 0.53 | 0.41 | 84 | 1005.5 |
| 20260509225853 | 13 | 321 | 16.1 | 49.9 | 0.36 | 0.48 | 0.36 | 84 | 1005.5 |
| 20260509224852 | 13 | 355 | 25.7 | 59.5 | 0.28 | 0.43 | 0.28 | 85 | 1005.6 |
| 20260509223820 | 18 | 350 | 37.0 | 59.5 | 0.03 | 0.20 | 0.03 | 66 | 1005.5 |
| 20260509222819 | 20 | 301 | 16.1 | 35.4 | 0.00 | 0.20 | 0.00 | 57 | 1003.9 |
| 20260509221818 | 20 | 279 | 20.9 | 37.0 | 0.00 | 0.25 | 0.00 | 56 | 1003.6 |
| 20260509220818 | 20 | 276 | 25.7 | 41.8 | 0.00 | 0.28 | 0.00 | 54 | 1003.2 |
| 20260509215745 | 20 | 272 | 25.7 | 38.6 | 0.00 | 0.28 | 0.00 | 53 | 1003.6 |
| 20260509214745 | 21 | 279 | 22.5 | 38.6 | 0.00 | 0.30 | 0.00 | 55 | 1003.3 |
| 20260509213744 | 21 | 276 | 24.1 | 40.2 | 0.00 | 0.33 | 0.00 | 54 | 1003.3 |
| 20260509212712 | 21 | 269 | 25.7 | 38.6 | 0.00 | 0.36 | 0.00 | 52 | 1003.3 |
| 20260509211711 | 21 | 273 | 24.1 | 40.2 | 0.00 | 0.38 | 0.00 | 53 | 1003.3 |
| 20260509210710 | 21 | 269 | 29.0 | 43.5 | 0.00 | 0.38 | 0.00 | 51 | 1003.3 |
| 20260509205709 | 21 | 266 | 22.5 | 40.2 | 0.00 | 0.41 | 0.00 | 55 | 1003.6 |
| 20260509204708 | 21 | 267 | 25.7 | 40.2 | 0.00 | 0.41 | 0.00 | 54 | 1003.6 |
| 20260509203708 | 21 | 259 | 22.5 | 45.1 | 0.00 | 0.41 | 0.00 | 54 | 1003.9 |
| 20260509202707 | 21 | 252 | 22.5 | 45.1 | 0.00 | 0.43 | 0.00 | 54 | 1004.0 |
| 20260509201706 | 21 | 272 | 19.3 | 35.4 | 0.00 | 0.46 | 0.00 | 56 | 1004.3 |
| 20260509200705 | 21 | 280 | 25.7 | 35.4 | 0.00 | 0.46 | 0.00 | 55 | 1004.6 |
| 20260509195704 | 21 | 281 | 22.5 | 38.6 | 0.00 | 0.46 | 0.00 | 58 | 1004.6 |
| 20260509194703 | 21 | 268 | 17.7 | 38.6 | 0.00 | 0.46 | 0.00 | 59 | 1004.9 |
| 20260509193631 | 21 | 277 | 29.0 | 40.2 | 0.00 | 0.46 | 0.00 | 57 | 1004.9 |
| 20260509192630 | 20 | 253 | 11.3 | 35.4 | 0.00 | 0.46 | 0.00 | 61 | 1004.9 |
| 20260509191630 | 20 | 274 | 20.9 | 35.4 | 0.00 | 0.46 | 0.00 | 59 | 1005.2 |
| 20260509190629 | 20 | 264 | 20.9 | 33.8 | 0.00 | 0.46 | 0.00 | 60 | 1005.2 |
| 20260509185556 | 20 | 262 | 19.3 | 38.6 | 0.00 | 0.46 | 0.00 | 60 | 1005.6 |
| 20260509184556 | 20 | 276 | 25.7 | 38.6 | 0.00 | 0.46 | 0.00 | 60 | 1005.6 |
| 20260509183555 | 20 | 262 | 19.3 | 38.6 | 0.00 | 0.46 | 0.00 | 61 | 1005.6 |
| 20260509182522 | 20 | 277 | 25.7 | 41.8 | 0.00 | 0.46 | 0.00 | 62 | 1005.9 |
| 20260509181449 | 19 | 275 | 24.1 | 43.5 | 0.00 | 0.46 | 0.00 | 62 | 1005.9 |
| 20260509180448 | 19 | 260 | 17.7 | 33.8 | 0.00 | 0.46 | 0.00 | 63 | 1005.5 |